Raleigh-Durham Airport, NC

11:28 PM EDT on September 22, 2017 (GMT -0400)
Raleigh-Durham International

Weather History for KRDU - February, 2014

Change the Weather History Date:

Wednesday, February 19, 2014

  Actual Average Record
Temperature  
Mean Temperature 61 °F 45 °F  
Max Temperature 72 °F 56 °F 76 °F (1939)
Min Temperature 49 °F 34 °F 11 °F (1979)
Degree Days  
Heating Degree Days 4 20  
Month to date heating degree days 439 407  
Since 1 July heating degree days 2543 2404  
Cooling Degree Days 0 0  
Month to date cooling degree days 0 0  
Year to date cooling degree days 0 0  
Growing Degree Days 9 (Base 50)    
Moisture  
Dew Point 51 °F    
Average Humidity 70    
Maximum Humidity 93    
Minimum Humidity 46    
Precipitation  
Precipitation 0.50 in 0.12 in 1.65 in (1924)
Month to date precipitation 2.60 2.13  
Year to date precipitation 4.56 5.63  
Snow  
Snow 0.00 in 0.10 in 0.90 in (2012)
Month to date snowfall 3.7 1.4  
Since 1 July snowfall 5.6 5.0  
Snow Depth 0.00 in    
Sea Level Pressure  
Sea Level Pressure 29.99 in    
Wind  
Wind Speed 8 mph (SW)    
Max Wind Speed 22 mph    
Max Gust Speed 28 mph    
Visibility 8 miles    
Events Rain , Thunderstorm    
T = Trace of Precipitation, MM = Missing Value Source: NWS Daily Summary

Daily Weather History Graph

Daily Weather History Graph

Search for Another Location

Airport or City:

Trip Planner

Search our weather history database for the weather conditions in past years. The results will help you decide how hot, cold, wet, or windy it might be!

Date:

Astronomy

Feb. 19, 2014 Rise Set
Actual Time 6:57 AM EST 6:00 PM EST
Civil Twilight 6:31 AM EST 6:26 PM EST
Nautical Twilight 6:01 AM EST 6:56 PM EST
Astronomical Twilight 5:32 AM EST 7:26 PM EST
Moon 10:41 PM EST (2/19) 9:12 AM EST (2/19)
Length of Visible Light 11h 55m
Length of Day
11h 03m
Waning Gibbous, 80% of the Moon is Illuminated
Feb 19
Waning Gibbous
Feb 22
Last Quarter
Mar 1
New
Mar 8
First Quarter
Mar 16
Full

Hourly Weather History & Observations

Time (EST) Temp. Dew Point Humidity Pressure Visibility Wind Dir Wind Speed Gust Speed Precip Events Conditions
12:51 AM 48.9 °F 33.1 °F 54% 30.09 in 10.0 mi South 6.9 mph - N/A   Overcast
1:51 AM 52.0 °F 35.1 °F 53% 30.07 in 10.0 mi South 3.5 mph - N/A   Overcast
2:51 AM 51.1 °F 39.9 °F 66% 30.04 in 10.0 mi South 6.9 mph - N/A   Mostly Cloudy
3:51 AM 52.0 °F 45.0 °F 77% 30.01 in 10.0 mi South 8.1 mph - N/A   Overcast
4:31 AM 51.8 °F 46.4 °F 82% 30.00 in 8.0 mi South 5.8 mph - 0.01 in Rain , Thunderstorm Light Thunderstorms and Rain
4:51 AM 51.1 °F 48.0 °F 89% 30.01 in 3.0 mi SW 8.1 mph - 0.05 in Rain , Thunderstorm Thunderstorms and Rain
5:03 AM 51.8 °F 48.2 °F 88% 30.03 in 1.5 mi SW 10.4 mph - 0.07 in Rain , Thunderstorm Thunderstorms and Rain
5:18 AM 51.8 °F 50.0 °F 94% 30.02 in 2.5 mi SSW 11.5 mph - 0.21 in Rain , Thunderstorm Thunderstorms and Rain
5:33 AM 51.8 °F 48.2 °F 88% 30.00 in 2.5 mi South 12.7 mph 23.0 mph 0.29 in Rain , Thunderstorm Thunderstorms and Rain
5:51 AM 53.1 °F 51.1 °F 93% 29.97 in 3.0 mi South 15.0 mph - 0.39 in Rain , Thunderstorm Thunderstorms and Rain
6:35 AM 53.6 °F 51.8 °F 94% 29.97 in 10.0 mi SSW 10.4 mph - 0.05 in   Mostly Cloudy
6:51 AM 53.1 °F 51.1 °F 93% 29.97 in 9.0 mi SSW 9.2 mph - 0.05 in   Mostly Cloudy
7:51 AM 53.1 °F 51.1 °F 93% 29.99 in 8.0 mi SSW 9.2 mph - N/A   Mostly Cloudy
8:04 AM 53.6 °F 51.8 °F 94% 29.99 in 7.0 mi SSW 9.2 mph - N/A   Overcast
8:21 AM 53.6 °F 51.8 °F 94% 29.99 in 8.0 mi SSW 10.4 mph - N/A   Overcast
8:51 AM 55.0 °F 52.0 °F 89% 29.98 in 8.0 mi SSW 9.2 mph 17.3 mph N/A   Overcast
9:51 AM 55.9 °F 53.1 °F 90% 29.99 in 4.0 mi SW 11.5 mph - 0.00 in Rain Light Rain
10:17 AM 57.2 °F 53.6 °F 88% 29.96 in 5.0 mi SW 10.4 mph - 0.01 in   Overcast
10:51 AM 57.9 °F 55.0 °F 90% 29.97 in 6.0 mi SW 11.5 mph - 0.01 in   Overcast
11:51 AM 61.0 °F 57.0 °F 87% 29.95 in 7.0 mi SW 16.1 mph - N/A   Overcast
12:34 PM 62.6 °F 55.4 °F 77% 29.94 in 9.0 mi WSW 16.1 mph 24.2 mph N/A   Overcast
12:51 PM 64.9 °F 57.9 °F 78% 29.93 in 9.0 mi WSW 11.5 mph 19.6 mph N/A   Mostly Cloudy
1:37 PM 69.8 °F 57.2 °F 64% 29.90 in 10.0 mi WSW 12.7 mph 26.5 mph N/A   Mostly Cloudy
1:51 PM 69.1 °F 55.9 °F 63% 29.91 in 10.0 mi SW 21.9 mph 27.6 mph N/A   Mostly Cloudy
2:51 PM 70.0 °F 55.0 °F 59% 29.89 in 10.0 mi WSW 12.7 mph 18.4 mph N/A   Mostly Cloudy
3:51 PM 72.0 °F 55.0 °F 55% 29.90 in 10.0 mi West 12.7 mph 20.7 mph N/A   Mostly Cloudy
4:51 PM 71.1 °F 55.0 °F 57% 29.92 in 10.0 mi WSW 9.2 mph - N/A   Mostly Cloudy
5:51 PM 66.0 °F 54.0 °F 65% 29.94 in 10.0 mi SW 4.6 mph - N/A   Mostly Cloudy
6:51 PM 62.1 °F 54.0 °F 75% 29.98 in 10.0 mi SW 4.6 mph - N/A   Mostly Cloudy
7:51 PM 61.0 °F 54.0 °F 78% 30.00 in 10.0 mi SSW 4.6 mph - N/A   Scattered Clouds
8:51 PM 57.0 °F 54.0 °F 89% 30.02 in 8.0 mi Calm Calm - N/A   Scattered Clouds
9:51 PM 55.9 °F 53.1 °F 90% 30.06 in 8.0 mi Calm Calm - N/A   Scattered Clouds
10:51 PM 55.0 °F 52.0 °F 89% 30.07 in 8.0 mi Calm Calm - N/A   Mostly Cloudy
11:51 PM 51.1 °F 48.9 °F 92% 30.10 in 8.0 mi NNE 3.5 mph - N/A   Mostly Cloudy